星链-5099 (STARLINK-5099 )

导读

STARLINK-5099是美国太空探索技术公司星链(Starlink)互联网星座的一员,于2022年10月5日发射升空。它属于星链项目的批量组网卫星,承担低轨卫星互联网的全球覆盖任务,依托近地轨道部署,能为全球偏远地区、海洋等区域提供高速互联网接入服务,是星链大规模星座建设进程中的一颗组网卫星。

Basic Information
目录编号:
54009
目录名称:
STARLINK-5099
国际标识:
2022-125AX
轨道中心:
EARTH
卫星名称:
星链-5099
卫星全名:
星链-5099 (STARLINK-5099 )
卫星状态:
在轨 (已飞行1351 天)
发射日期:
2022-10-05 UTC
国别 :
美国 (US)
星等 :
--
Orbit Information
数据来源 国际轨道数据 AOE轨道数据
星历时间 2026-06-17T11:39:35+0800
4小时前
查看轨道信息
2026-06-15T03:00:00+0800
2天前
查看轨道信息
半长轴 6917.932km 6917.901km
偏心率 0.0000761 0.0001239
轨道倾角 53.161° 53.159°
近地点辐角 99.928° 95.164°
升交点赤经 127.125° 137.736°
平近点角 260.180° 34.421°
近地点 539.268km 538.906km
远地点 540.322km 540.622km
周期 95.439分钟 95.438分钟
每日圈数 15.088232 15.088334
Detailed Information
固有亮度:
5
最大亮度:
2.5
卫星平台:
Starlink v1.5
覆盖范围:
全球
运营商:
太空探索技术公司
运营商所在国:
美国
制造商(研发单位):
太空探索技术公司
制造商所在国:
美国
使用方式:
暂无
Satellite Introduction
星链(Starlink)计划是由太空探索技术公司(SpaceX)提出的一个巨型低轨卫星互联网星座项目,计划在2019年至2024年间在太空搭建由约1.2万颗卫星组成的“星链”网络,其中1584颗将部署在地球上空550千米处的近地轨道,并从2020年开始工作。该卫星仍在工作。
2D Orbit Map
3D Orbit Map
Orbit Altitude Analysis Chart
Orbit Inclination Analysis Chart
Orbit Comprehensive Analysis Chart
View Comprehensive Chart